Tracking 18850 objects as of 22-Nov-2017
HD Live streaming from Space Station
objects crossing your sky now

COSMOS 80

Track COSMOS 80 now!
10-day predictions
COSMOS 80 is classified as:


NORAD ID: 1570
Int'l Code: 1965-070A
Perigee: 1,378.5 km
Apogee: 1,541.7 km
Inclination: 56.1 °
Period: 114.9 minutes
Semi major axis: 7831 km
RCS: 0.3558 m2 (medium)
Launch date: September 3, 1965
Source: Commonwealth of Independent States (former USSR) (CIS)
Launch site: TYURATAM MISSILE AND SPACE COMPLEX (TTMTR)
aabbcc
Your satellite tracking list
Your tracking list is empty




NASA's NSSDC Master Catalog

Two Line Element Set (TLE):
1  1570U 65070A   17326.44941318 -.00000093 +00000-0 +24110-4 0  9999
2  1570 056.0563 319.2823 0104186 041.2462 115.6400 12.52757988389277
Source of the keplerian elements: AFSPC